FW8134 Weather Reports


Display with metric or nautical units.
time (UTC)temp
F
wind
direction
speed
MPH
gust
MPH
rain 1hr
in
rain 24hr
in
rain mn
in
humidity
%
barometer
mb
20260509005520 44 0.0 0.0 0.00 0.00 0.00 95 997.1
20260509004521 44 0.0 0.0 0.00 0.00 0.00 95 997.2
20260509003517 45 0.0 0.0 0.00 0.00 0.00 95 997.2
20260509002518 45 0.0 0.0 0.00 0.00 0.00 95 997.2
20260509001519 45 0.0 0.0 0.00 0.00 0.00 95 997.3
20260509000521 45 0.0 0.0 0.00 0.00 0.00 95 997.5
20260508235557 45 0.0 0.0 0.00 0.00 0.00 95 997.6
20260508234538 46 0.0 0.0 0.00 0.00 0.00 95 997.6
20260508233519 46 0.0 0.0 0.00 0.00 0.00 95 997.7
20260508232521 46 0.0 0.0 0.00 0.00 0.00 94 997.7
20260508231537 46 0.0 0.0 0.00 0.00 0.00 94 997.6
20260508230518 46 0.0 0.0 0.00 0.00 0.00 94 997.7
20260508225519 47 0.0 0.0 0.00 0.00 0.00 94 997.7
20260508224520 47 0.0 0.0 0.00 0.00 0.00 93 997.7
20260508223516 47 0.0 0.0 0.00 0.00 0.00 93 997.7
20260508222518 47 0.0 0.0 0.00 0.00 0.00 93 997.8
20260508221519 47 0.0 0.0 0.00 0.00 0.00 92 997.8
20260508220520 48 0.0 0.0 0.00 0.00 0.00 92 997.7
20260508215516 48 0.0 0.0 0.00 0.00 0.00 92 997.8
20260508214538 48 0.0 0.0 0.00 0.00 0.00 91 997.8
20260508213519 49 0.0 0.0 0.00 0.00 0.00 91 997.8
20260508212540 49 0.0 0.0 0.00 0.00 0.00 90 997.8
20260508211517 49 0.0 0.0 0.00 0.00 0.00 90 997.9
20260508210517 50 0.0 0.0 0.00 0.00 0.00 89 997.9
20260508205519 50 0.0 0.0 0.00 0.00 0.00 88 997.9
20260508204520 50 0.0 0.0 0.00 0.00 0.00 87 997.8
20260508203516 51 0.0 0.0 0.00 0.00 0.00 86 997.7
20260508202517 52 0.0 0.0 0.00 0.00 0.00 85 997.7
20260508201519 52 0.0 0.0 0.00 0.00 0.00 84 997.6
20260508200520 53 0.0 0.0 0.00 0.00 0.00 83 997.5
20260508195516 54 0.0 0.0 0.00 0.00 0.00 81 997.4
20260508194518 55 0.0 0.0 0.00 0.00 0.00 80 997.2
20260508193538 56 0.0 0.0 0.00 0.00 0.00 78 997.1
20260508192520 57 0.0 0.0 0.00 0.00 0.00 77 997.1
20260508191536 58 0.0 0.0 0.00 0.00 0.00 74 996.9
20260508190517 59 0.0 0.0 0.00 0.00 0.00 72 996.9
20260508185518 61 0.0 0.0 0.00 0.00 0.00 70 996.7
20260508184519 62 0.0 2.0 0.00 0.00 0.00 63 996.6
20260508183516 62 0.0 0.0 0.00 0.00 0.00 61 996.6
20260508182517 63 351 0.0 2.0 0.00 0.00 0.00 57 996.6
20260508181518 64 347 1.0 2.0 0.00 0.00 0.00 54 996.5
20260508180519 65 24 2.0 4.0 0.00 0.00 0.00 53 996.5
20260508175516 65 45 3.0 7.0 0.00 0.00 0.00 51 996.4
20260508174516 66 13 2.0 6.0 0.00 0.00 0.00 49 996.4
20260508173538 66 19 0.0 2.0 0.00 0.00 0.00 49 996.4
20260508172538 66 30 2.0 6.0 0.00 0.00 0.00 46 996.3
20260508171534 67 40 2.0 4.0 0.00 0.00 0.00 46 996.3
20260508170515 67 18 2.0 7.0 0.00 0.00 0.00 45 996.3
20260508165517 68 356 3.0 7.0 0.00 0.00 0.00 43 996.3
20260508164518 68 11 1.0 4.0 0.00 0.00 0.00 42 996.2
20260508163519 68 43 3.0 6.0 0.00 0.00 0.00 43 996.2
20260508162535 69 358 2.0 5.0 0.00 0.00 0.00 43 996.2
20260508161516 68 39 3.0 7.0 0.00 0.00 0.00 44 996.2
20260508160517 68 32 4.0 9.0 0.00 0.00 0.00 43 996.2
20260508155518 68 44 3.0 6.0 0.00 0.00 0.00 45 996.2
20260508154519 68 39 3.0 10.0 0.00 0.00 0.00 44 996.2
20260508153516 69 336 2.0 5.0 0.00 0.00 0.00 45 996.2
20260508152517 68 313 1.0 3.0 0.00 0.00 0.00 45 996.1
20260508151538 67 315 1.0 4.0 0.00 0.00 0.00 45 996.2
20260508150519 67 35 4.0 8.0 0.00 0.00 0.00 44 996.2
20260508145520 67 9 3.0 7.0 0.00 0.00 0.00 45 996.3
20260508144516 67 30 3.0 8.0 0.00 0.00 0.00 46 996.3
20260508143517 67 32 4.0 10.0 0.00 0.00 0.00 44 996.3
20260508142518 68 45 5.0 8.0 0.00 0.00 0.00 44 996.3
20260508141519 68 172 3.0 6.0 0.00 0.00 0.00 43 996.3
20260508140515 67 79 3.0 7.0 0.00 0.00 0.00 45 996.4
20260508135516 66 39 3.0 7.0 0.00 0.00 0.00 49 996.4
20260508134517 66 38 3.0 7.0 0.00 0.00 0.00 49 996.5
20260508133519 66 32 3.0 6.0 0.00 0.00 0.00 51 996.5
20260508132520 66 40 4.0 8.0 0.00 0.00 0.00 51 996.6
20260508131516 67 37 6.0 12.0 0.00 0.00 0.00 48 996.6
20260508130517 67 138 3.0 7.0 0.00 0.00 0.00 48 996.6
20260508125518 67 161 3.0 6.0 0.00 0.00 0.00 50 996.6
20260508124519 67 49 4.0 7.0 0.00 0.00 0.00 50 996.6
20260508123520 65 50 3.0 8.0 0.00 0.00 0.00 50 996.8
20260508122516 65 19 3.0 7.0 0.00 0.00 0.00 53 996.9
20260508121517 66 27 2.0 5.0 0.00 0.00 0.00 52 996.9
20260508120538 65 30 3.0 7.0 0.00 0.00 0.00 51 997.0
20260508115519 66 23 3.0 9.0 0.00 0.00 0.00 52 997.0
20260508114520 66 45 2.0 7.0 0.00 0.00 0.00 54 997.2
20260508113516 65 127 2.0 8.0 0.00 0.00 0.00 52 997.2
20260508112517 65 32 5.0 10.0 0.00 0.00 0.00 55 997.3
20260508111518 64 31 2.0 5.0 0.00 0.00 0.00 57 997.2
20260508110519 64 51 4.0 10.0 0.00 0.00 0.00 58 997.3
20260508105515 64 107 3.0 6.0 0.00 0.00 0.00 58 997.3
20260508104536 64 46 4.0 10.0 0.00 0.00 0.00 58 997.3
20260508103517 63 39 3.0 8.0 0.00 0.00 0.00 59 997.3
20260508102518 63 50 3.0 8.0 0.00 0.00 0.00 62 997.4
20260508101519 63 36 3.0 8.0 0.00 0.00 0.00 61 997.4
20260508100516 63 68 1.0 4.0 0.00 0.00 0.00 62 997.4
20260508095516 63 53 4.0 9.0 0.00 0.00 0.00 62 997.4
20260508094517 62 73 2.0 7.0 0.00 0.00 0.00 63 997.4
20260508093519 62 128 2.0 6.0 0.00 0.00 0.00 66 997.3
20260508092520 61 89 3.0 8.0 0.00 0.00 0.00 66 997.3
20260508091516 61 69 2.0 8.0 0.00 0.00 0.00 67 997.3
20260508090517 60 73 3.0 8.0 0.00 0.00 0.00 69 997.3
20260508085538 60 32 4.0 10.0 0.00 0.00 0.00 70 997.2
20260508084519 59 41 6.0 12.0 0.00 0.00 0.00 71 997.3
20260508083515 59 50 3.0 8.0 0.00 0.00 0.00 75 997.3
20260508082516 58 30 5.0 10.0 0.00 0.00 0.00 76 997.3
20260508081517 58 44 4.0 8.0 0.00 0.00 0.00 78 997.2
20260508080518 57 63 1.0 7.0 0.00 0.00 0.00 80 997.2
20260508075519 57 48 3.0 6.0 0.00 0.00 0.00 81 997.3
20260508074515 57 33 5.0 9.0 0.00 0.00 0.00 81 997.3
20260508073516 57 51 2.0 5.0 0.00 0.00 0.00 80 997.2
20260508072518 56 103 1.0 3.0 0.00 0.00 0.00 84 997.3
20260508071518 56 51 2.0 5.0 0.00 0.00 0.00 84 997.2
20260508070515 56 36 1.0 3.0 0.00 0.00 0.00 85 997.2
20260508065516 55 0.0 0.0 0.00 0.00 0.00 87 997.2
20260508064518 53 0.0 0.0 0.00 0.00 0.00 92 997.1
20260508063539 50 0.0 0.0 0.00 0.00 0.00 94 997.0
20260508062555 48 33 1.0 4.0 0.00 0.00 0.00 94 996.8
20260508061516 48 28 1.0 3.0 0.00 0.00 0.00 94 996.9
20260508060517 48 0.0 0.0 0.00 0.00 0.00 98 997.0
20260508055519 46 0.0 0.0 0.00 0.00 0.00 98 997.0
20260508054519 44 0.0 0.0 0.00 0.00 0.00 97 996.9
20260508053536 43 0.0 0.0 0.00 0.00 0.00 96 996.9
20260508052517 42 0.0 0.0 0.00 0.00 0.00 98 996.9
20260508051538 40 0.0 0.0 0.00 0.00 0.00 98 996.9
20260508050549 38 0.0 0.0 0.00 0.00 0.00 97 996.9
20260508045536 38 0.0 0.0 0.00 0.00 0.00 97 996.9
20260508044517 37 0.0 0.0 0.00 0.00 0.00 97 996.8
20260508043518 38 0.0 0.0 0.00 0.00 0.00 97 996.7
20260508042515 37 0.0 0.0 0.00 0.00 0.00 97 996.7
20260508041516 38 0.0 0.0 0.00 0.00 0.00 97 996.8
20260508040517 38 0.0 0.0 0.00 0.00 0.00 97 996.8
20260508035519 38 0.0 0.0 0.00 0.00 0.00 97 996.8
20260508034535 38 0.0 0.0 0.00 0.00 0.00 97 996.9
20260508033516 38 0.0 0.0 0.00 0.00 0.00 96 996.9
20260508032517 38 0.0 0.0 0.00 0.00 0.00 96 997.0
20260508031519 38 0.0 0.0 0.00 0.00 0.00 97 997.0
20260508030515 39 0.0 0.0 0.00 0.00 0.00 96 997.0
20260508025516 39 0.0 0.0 0.00 0.00 0.00 96 997.0
20260508024517 39 0.0 0.0 0.00 0.00 0.00 96 997.0
20260508023518 39 0.0 0.0 0.00 0.00 0.00 96 997.0
20260508022519 39 0.0 0.0 0.00 0.00 0.00 96 996.9
20260508021517 40 0.0 0.0 0.00 0.00 0.00 96 996.9
20260508020517 40 0.0 0.0 0.00 0.00 0.00 96 996.9
20260508015518 40 0.0 0.0 0.00 0.00 0.00 96 996.9
20260508014519 40 0.0 0.0 0.00 0.00 0.00 96 996.9
20260508013516 41 0.0 0.0 0.00 0.00 0.00 96 997.0
20260508012517 41 0.0 0.0 0.00 0.00 0.00 96 997.0
20260508011518 41 0.0 0.0 0.00 0.00 0.00 96 997.0
20260508010519 41 0.0 0.0 0.00 0.00 0.00 96 997.0